Location: Fort Wayne
(41.1310°N, 85.1290°W)
Time: 02:21:48
(UTC-04:00)

SR - Visible Passes

Search period start: 27 August 2016 00:00
Search period end: 06 September 2016 00:00
Orbit: 585 x 873 km, 66.7° (Epoch: 26 August)

Date Brightness Start Highest point End Pass type
(mag) Time Alt. Az. Time Alt. Az. Time Alt. Az.
29 Aug ? 01:23:47 10° N 01:23:47 10° N 01:23:47 10° N visible
03 Sep ? 00:40:34 10° N 00:40:36 10° N 00:40:36 10° N visible
03 Sep ? 23:52:01 10° N 23:52:18 11° N 23:52:18 11° N visible
